Theta_e
309 308 308 307 307 308 309 310 311 310 311 309 308 308 309 313 313 313 316 318 317 317 318 318 319 318 317 318 321 322 325 333 333 335 333 328 329 326 324 330 334 336 336 336 337
308 308 307 305 307 306 308 309 309 310 311 310 308 308 308 312 314 316 313 316 316 316 318 318 317 316 315 318 321 324 323 329 329 326 326 328 327 326 326 331 337 337 336 336 337
306 308 307 305 302 305 307 307 305 307 310 309 308 308 308 312 316 314 315 314 314 315 316 319 318 315 317 319 322 324 326 325 325 326 323 326 325 323 323 326 334 339 337 333 333
306 307 308 305 303 302 304 304 305 304 306 308 308 308 307 313 307 313 313 313 315 317 317 318 315 316 318 320 321 325 323 324 324 322 324 324 322 322 323 325 324 335 334 332 330
306 303 305 304 303 301 302 302 303 305 305 307 309 308 309 314 314 314 314 313 313 316 319 318 315 316 319 318 320 323 323 321 320 320 321 322 322 322 323 329 333 334 334 332 331
306 304 303 304 303 302 300 302 302 305 306 308 309 309 310 312 311 313 313 311 313 314 315 318 314 313 315 317 320 318 320 321 321 320 320 323 322 322 321 327 332 331 320 318 316
304 305 303 303 303 303 300 303 303 306 306 308 309 309 311 310 311 314 313 313 313 315 315 318 317 313 314 318 318 318 321 320 320 321 318 319 324 322 318 320 314 310 309 309 309
304 305 304 303 303 303 300 302 304 304 305 308 308 309 310 307 309 310 312 312 315 314 315 317 317 316 317 316 319 320 318 323 318 320 318 323 325 312 308 312 307 308 309 310 310
304 305 304 303 303 303 300 302 304 305 306 308 308 309 309 310 309 310 310 310 315 315 315 317 317 316 316 317 321 322 326 321 318 314 317 320 315 308 308 308 306 307 309 311 311
304 305 304 303 303 303 299 303 304 305 306 308 309 309 307 310 310 310 310 310 315 316 316 319 318 316 315 316 325 325 328 325 323 320 311 310 309 308 306 307 305 306 308 309 309
304 304 303 302 303 302 300 305 302 304 307 303 305 307 308 307 310 311 311 311 315 315 318 320 319 318 316 317 318 319 327 326 326 316 313 311 311 308 306 306 307 308 307 307 306
304 304 303 302 303 299 304 304 304 304 304 305 306 306 306 307 311 311 312 313 316 317 317 321 320 314 314 316 319 319 322 323 323 321 318 314 311 310 309 307 306 306 305 305 305
304 303 301 303 300 304 305 305 304 305 304 304 306 306 306 307 310 310 311 313 316 316 316 317 317 316 316 317 319 320 320 318 321 324 319 319 320 315 308 306 306 305 304 303 303
303 302 303 301 304 304 304 304 304 304 295 302 306 305 306 308 309 308 311 312 314 316 314 314 312 317 318 318 318 322 319 317 323 326 327 322 328 322 310 307 304 304 304 303 303
302 303 302 302 304 303 303 304 303 301 291 299 306 306 308 308 308 309 310 311 313 315 312 314 312 313 318 318 318 321 318 317 319 319 321 322 326 320 312 311 306 304 303 302 302
303 302 302 302 302 303 303 303 302 293 292 302 306 307 308 308 309 309 311 310 311 313 314 311 311 310 311 314 317 320 321 320 320 322 324 321 321 314 316 313 306 304 303 302 301
302 301 303 304 302 302 302 299 293 293 297 298 304 306 308 309 310 310 311 312 311 312 313 314 314 312 310 318 320 321 323 323 324 324 322 317 320 314 307 306 304 303 302 302 300
301 301 300 301 301 302 303 293 291 288 294 302 303 302 308 308 308 310 311 312 311 312 311 317 316 313 310 317 322 323 322 321 322 322 319 317 321 310 304 302 302 302 301 300 299
300 299 300 301 301 302 296 290 290 296 302 301 301 303 306 309 309 309 309 312 311 311 315 318 315 313 312 312 318 321 322 314 314 308 318 317 306 304 302 301 301 301 300 300 299
302 301 300 298 301 301 291 296 299 300 301 303 303 304 306 305 310 306 309 308 309 310 312 312 317 314 314 312 313 319 314 320 316 317 320 315 308 308 303 302 300 300 300 299 299
303 296 301 299 300 292 292 294 298 298 300 303 303 302 306 307 309 308 309 307 308 310 310 311 313 315 314 312 312 311 315 313 315 315 315 314 312 304 304 302 300 298 299 299 298
298 293 300 300 292 282 297 294 298 299 301 302 303 304 304 307 309 308 305 309 306 308 314 312 313 315 315 309 309 313 312 311 314 315 311 311 309 300 303 301 298 297 297 297 297
292 294 300 299 290 284 284 293 298 299 299 300 301 301 302 307 309 306 305 307 305 308 311 309 313 313 314 311 310 314 314 312 310 308 312 311 307 298 299 298 298 297 296 297 296
293 291 290 289 289 291 285 288 293 297 299 299 300 300 303 306 306 306 306 306 304 304 305 307 306 311 312 309 309 314 313 312 310 308 310 308 303 298 298 298 297 296 296 296 295
291 289 290 289 289 291 292 287 288 293 297 297 298 298 300 303 303 304 306 306 306 305 305 304 304 302 301 300 309 312 313 313 311 309 308 308 303 300 299 298 297 296 295 295 294
292 291 291 292 294 293 297 296 295 293 297 296 298 298 299 300 301 302 301 302 305 305 304 304 306 299 301 299 307 310 310 310 311 309 303 302 305 298 296 294 294 295 295 295 294
296 295 292 292 295 294 293 297 299 299 298 297 298 296 298 297 295 295 297 297 298 301 302 303 302 302 305 295 297 311 302 307 307 306 303 305 304 300 296 296 296 294 294 294 293
Wind_Speed
4 3 4 6 6 6 8 8 9 7 8 8 8 9 8 10 10 4 4 4 4 8 9 11 5 14 6 3 2 3 4 2 1 3 2 2 2 2 4 7 5 6 3 10 19
4 3 3 5 5 4 6 8 9 7 7 8 8 8 7 8 9 8 6 6 8 9 6 5 5 11 4 3 3 4 3 3 2 2 0 1 1 5 5 4 5 10 11 15 16
6 4 3 3 5 4 5 7 7 8 6 7 8 8 6 6 4 3 3 3 4 5 3 2 3 1 2 2 2 3 5 3 1 4 0 1 2 2 8 3 6 11 13 5 10
8 6 5 4 3 4 6 6 7 8 8 7 6 7 7 2 6 2 3 1 2 3 4 3 2 1 3 3 3 2 2 2 4 4 3 2 2 4 3 2 6 11 12 8 6
9 8 6 5 4 4 5 6 7 8 7 7 6 6 3 2 6 2 1 4 3 1 3 2 3 2 4 1 3 2 1 2 3 5 2 6 4 5 4 7 13 14 8 9 8
12 10 8 6 4 4 5 6 6 6 6 5 5 5 1 3 2 4 4 8 3 4 1 2 2 2 4 2 2 1 3 2 3 2 3 5 3 4 2 5 11 10 11 10 14
13 12 9 7 5 4 5 6 5 4 5 4 3 2 2 9 3 5 3 2 6 3 3 1 4 3 3 1 3 2 3 3 0 1 2 1 5 6 5 8 15 15 14 14 15
13 12 9 7 5 4 5 6 4 4 5 3 3 1 4 11 8 14 9 7 6 7 6 4 2 2 2 3 1 3 5 4 4 1 2 3 2 6 11 15 11 10 10 13 14
14 12 10 7 5 4 5 5 5 4 4 2 2 1 6 6 6 14 12 8 4 7 6 4 1 2 1 5 4 1 4 4 3 6 1 4 3 9 7 17 9 9 9 11 11
14 12 10 7 4 4 5 5 4 4 0 1 4 1 6 2 4 6 13 12 5 3 1 2 2 2 1 5 13 13 13 5 5 4 16 14 7 8 11 15 9 8 8 11 12
14 13 10 6 4 2 4 2 3 2 2 6 4 3 2 12 4 5 6 8 2 3 6 4 4 12 10 4 6 9 17 11 2 5 12 7 10 8 7 10 10 9 8 10 10
15 12 9 7 4 1 0 2 1 1 4 9 8 5 7 5 3 5 5 6 5 5 4 3 11 4 6 5 5 11 15 9 6 8 8 6 10 9 9 5 5 6 7 8 7
14 12 9 7 4 4 6 3 2 4 1 3 3 3 3 6 4 5 8 3 4 6 9 5 2 9 7 6 9 5 13 6 9 9 7 9 2 1 5 6 7 7 7 7 7
14 11 9 7 4 5 3 2 1 1 4 4 2 4 2 3 5 12 9 6 3 11 6 5 4 15 7 12 11 11 6 11 18 15 5 10 4 7 3 5 5 5 6 7 7
16 13 9 3 6 3 2 2 2 2 4 4 2 1 1 6 3 5 12 2 5 5 6 6 5 7 11 11 8 5 9 12 9 4 9 10 2 2 14 7 8 6 7 6 6
16 13 9 5 3 3 4 1 1 6 4 4 3 2 1 3 4 4 3 2 2 4 3 7 2 7 7 4 7 9 10 9 3 2 5 12 7 5 10 12 11 8 8 8 7
14 12 5 3 2 5 3 3 4 4 4 6 2 5 6 5 4 1 2 9 5 5 4 5 4 2 3 7 8 9 16 3 4 4 4 10 5 3 8 15 14 14 10 7 6
10 5 7 6 6 1 2 5 4 4 4 2 2 9 5 7 5 3 3 8 7 1 4 6 7 7 3 3 9 16 7 5 7 6 4 3 6 2 2 8 11 10 10 8 7
14 14 7 4 2 3 4 3 6 4 2 5 8 2 2 1 1 4 5 3 2 9 3 6 4 1 1 2 9 6 5 3 6 3 3 4 2 5 4 8 11 11 10 8 7
7 5 5 2 2 2 4 3 2 1 3 2 2 1 3 2 2 5 4 1 2 1 2 4 3 1 2 2 1 5 8 3 2 7 4 2 3 4 11 13 11 11 10 8 6
4 3 3 1 1 4 3 2 3 3 4 2 2 3 4 3 2 2 2 1 1 4 4 3 1 1 2 1 7 4 5 4 4 1 4 5 5 5 19 17 16 11 11 11 9
4 2 2 3 3 1 2 3 2 3 3 3 2 2 3 4 3 3 3 1 3 1 3 3 2 4 2 1 2 1 5 5 4 3 2 1 3 5 15 13 13 11 10 8 9
3 1 1 3 2 2 4 3 2 2 3 2 2 3 2 4 2 4 3 2 3 2 1 3 3 3 7 3 4 2 1 3 5 3 5 4 3 4 11 12 12 12 9 8 8
3 1 4 3 0 5 3 2 3 4 4 3 3 2 3 2 3 3 2 3 3 2 6 3 2 1 1 1 3 5 4 3 5 3 4 3 5 5 13 15 11 9 9 8 8
2 2 3 1 3 1 3 3 2 4 2 5 2 6 4 2 3 3 1 3 4 3 2 2 3 3 4 5 0 3 7 5 4 4 5 6 10 16 17 16 14 9 8 9 8
4 4 2 2 2 3 1 1 3 4 2 4 3 7 7 3 4 3 4 2 0 6 1 2 3 2 7 10 5 4 3 5 6 4 6 7 1 7 6 8 8 10 10 10 8
2 3 4 1 1 3 2 4 2 2 1 4 2 1 6 2 2 5 3 3 1 1 2 2 3 3 1 4 4 4 3 1 3 2 7 6 6 13 7 12 13 10 9 10 9
Wind_Direction
311 318 346 356 348 333 337 338 342 323 299 307 314 310 310 326 327 317 227 232 272 305 331 329 312 351 336 308 264 92 63 146 174 198 258 19 105 45 18 80 51 358 88 139 144
298 280 316 341 0 339 341 336 338 337 303 302 307 314 310 321 320 274 241 252 272 286 309 5 347 351 345 297 298 99 125 200 219 212 172 223 11 137 85 66 45 77 69 112 138
284 262 282 322 336 327 329 324 321 324 310 300 305 307 312 322 306 235 182 218 236 242 235 280 302 270 307 320 258 161 167 251 275 217 334 147 72 15 131 84 187 165 145 115 128
274 266 272 295 317 321 319 327 321 312 313 306 299 305 304 287 217 152 123 45 275 205 191 219 171 241 186 238 283 188 192 217 272 324 47 22 54 68 60 215 149 145 136 126 137
253 262 261 266 289 319 317 317 314 316 313 307 300 309 304 244 255 165 327 336 40 321 196 185 170 176 201 247 331 150 221 29 37 94 87 72 52 129 79 101 105 119 125 137 143
240 245 252 258 270 298 323 317 311 314 316 308 304 311 303 231 242 233 269 281 323 344 325 228 174 169 260 218 156 198 185 185 350 50 52 114 108 66 348 111 105 105 79 67 64
239 234 238 249 264 281 316 323 306 319 316 304 308 320 297 239 193 145 195 248 262 284 327 337 304 202 189 176 201 143 96 85 147 0 49 280 45 51 10 78 93 89 86 81 69
232 224 229 233 256 278 308 313 299 289 312 286 295 274 248 262 257 254 238 292 242 247 260 308 335 133 177 317 150 127 71 129 326 129 343 91 107 332 331 105 84 79 80 76 62
224 217 217 227 248 274 299 305 302 298 305 274 264 179 265 304 235 235 253 247 305 231 245 295 73 194 120 155 111 126 160 148 103 12 272 59 72 343 29 104 79 76 67 72 63
210 212 210 219 236 276 305 306 293 301 14 194 253 273 276 292 253 246 238 233 260 174 209 146 81 171 188 162 195 185 193 200 124 354 84 77 57 23 34 81 78 68 67 65 61
193 201 198 201 205 284 322 326 49 14 276 195 203 254 349 328 286 235 198 190 241 165 172 198 161 208 194 159 125 148 179 205 183 103 69 71 78 54 28 53 69 68 64 65 54
181 187 183 183 175 216 6 53 76 113 308 249 241 265 276 292 301 266 188 173 184 179 171 155 225 187 167 218 174 166 177 169 122 128 84 64 72 59 48 49 60 85 72 71 63
168 170 168 168 150 116 95 82 34 360 242 290 199 232 221 197 240 254 163 194 195 175 199 191 246 171 185 186 206 196 178 174 140 131 77 119 320 60 69 63 73 61 71 63 66
153 154 153 154 138 139 78 70 1 337 50 279 243 275 212 191 254 224 211 163 249 196 164 239 263 185 181 205 198 201 164 144 143 156 173 173 181 190 153 98 72 68 71 69 69
140 143 146 165 143 121 156 212 303 84 28 274 242 235 333 194 320 241 198 211 211 196 158 212 197 177 198 194 176 194 106 133 149 129 119 184 151 206 155 177 154 135 102 87 74
136 139 139 133 141 159 170 226 119 46 266 331 289 302 176 259 285 311 155 145 181 249 243 203 214 178 200 156 187 142 92 60 87 45 209 183 178 194 186 180 157 145 131 125 111
133 134 167 167 158 139 169 64 43 123 321 308 334 322 318 193 251 277 148 187 178 186 204 181 196 250 176 119 154 137 144 133 180 192 240 162 167 217 200 167 160 154 144 128 118
117 128 97 104 119 135 195 50 88 241 247 312 293 288 240 180 222 145 138 185 229 105 148 165 202 184 187 203 177 167 166 156 186 171 159 172 212 278 138 127 129 135 132 124 115
109 84 80 58 48 324 70 64 202 233 297 319 310 299 278 281 181 166 170 158 261 191 218 188 222 275 175 135 163 175 190 60 102 32 109 139 10 360 72 115 133 140 135 134 128
108 83 54 348 272 16 73 184 259 293 303 234 278 240 292 276 227 153 172 136 189 71 252 193 159 310 147 128 32 182 128 102 65 159 173 144 205 205 182 172 161 156 150 144 137
96 57 20 354 267 50 108 204 270 250 239 259 302 296 304 291 269 107 94 104 262 199 259 155 4 273 154 165 166 144 178 133 105 305 133 139 243 202 182 180 169 163 156 155 150
106 72 23 180 47 32 127 188 272 286 258 266 261 266 269 288 213 117 145 76 178 300 193 108 153 189 158 102 284 273 158 145 124 183 51 121 237 319 176 167 156 158 159 154 149
108 196 65 140 135 307 310 297 241 302 284 299 287 237 271 280 291 112 136 109 70 63 211 108 228 140 136 33 335 162 133 116 91 78 170 151 249 29 133 145 160 155 154 151 147
91 56 335 47 238 129 136 310 325 310 282 318 349 286 286 302 21 110 123 176 123 86 332 204 57 119 161 259 135 143 137 118 125 115 164 195 159 171 160 160 157 157 153 154 155
47 219 179 245 327 95 119 151 19 347 316 5 58 357 283 21 12 26 14 102 153 152 14 147 104 98 82 327 54 124 150 145 97 148 152 190 175 191 177 164 164 159 151 146 155
137 131 48 148 262 100 44 291 172 294 358 326 62 360 44 75 20 15 339 17 239 197 294 5 118 83 36 10 44 77 110 133 120 120 83 124 275 130 130 127 145 158 158 161 162
154 111 103 297 230 80 203 184 188 194 153 69 293 103 47 29 336 288 334 346 359 339 87 351 117 55 46 352 23 110 247 117 146 150 146 167 203 153 158 170 171 165 164 170 170